Location: Absher
(46.5583°N, 107.9840°W)
Time: 07:27:46
(UTC+00:00)

BlueWalker 3 - Visible Passes

Search period start: 04 December 2022 00:00
Search period end: 14 December 2022 00:00
Orbit: 501 x 519 km, 53.2° (Epoch: 03 December)

Date Brightness Start Highest point End Pass type
(mag) Time Alt. Az. Time Alt. Az. Time Alt. Az.
04 Dec 2.9 01:14:34 10° WNW 01:18:07 32° N 01:18:28 31° NNE visible
05 Dec 2.9 00:56:12 10° WNW 00:59:46 32° N 01:00:52 27° NE visible
05 Dec 4.8 02:34:55 10° WNW 02:35:42 15° WNW 02:35:42 15° WNW visible
06 Dec 2.9 00:37:48 10° NW 00:41:23 33° N 00:43:20 21° ENE visible
06 Dec 4.1 02:16:31 10° WNW 02:18:10 24° WNW 02:18:10 24° WNW visible
07 Dec 2.9 00:19:25 10° NW 00:23:01 33° N 00:25:52 14° ENE visible
07 Dec 3.1 01:58:07 10° WNW 02:00:42 39° WNW 02:00:42 39° WNW visible
08 Dec 2.8 00:01:01 10° NW 00:04:38 34° N 00:08:13 10° ENE visible
08 Dec 2.0 01:39:43 10° WNW 01:43:20 75° WNW 01:43:20 75° WNW visible
09 Dec 1.9 01:21:18 10° WNW 01:25:14 84° SSW 01:26:08 51° SE visible
10 Dec 2.0 01:02:53 10° WNW 01:06:48 80° SW 01:09:06 23° SE visible
10 Dec 5.0 02:42:43 10° W 02:43:58 14° WSW 02:43:58 14° WSW visible
11 Dec 2.1 00:44:29 10° WNW 00:48:23 76° SSW 00:52:16 10° SE visible
11 Dec 4.8 02:24:27 10° W 02:26:29 14° SW 02:27:15 13° SW visible
12 Dec 2.2 00:26:03 10° WNW 00:29:57 72° SW 00:33:50 10° SE visible
12 Dec 4.9 02:06:12 10° W 02:08:01 13° SW 02:09:49 10° SSW visible
13 Dec 2.3 00:07:37 10° WNW 00:11:31 68° SW 00:15:23 10° SE visible
13 Dec 5.1 01:47:59 10° WSW 01:49:32 12° SW 01:51:06 10° SSW visible
